GFSNGP_850_spd_084.txt.gz
Wind_Speed
14 17 17 17 18 18 22 23 21 16 20 20 20 18 15 10 12 12 11 9 11 16 19 23 25 28 29 29 31 32 30 32 35 34 34 34 33 33 35 33 29 28 26 26
11 15 16 17 22 23 25 24 23 22 22 13 10 15 14 18 14 13 15 8 12 15 19 23 26 27 29 32 34 35 36 36 32 33 35 34 32 30 27 26 27 28 30 30
6 3 11 17 11 19 25 25 23 19 16 13 13 13 15 19 14 13 15 14 12 15 21 24 26 27 28 29 29 32 33 32 31 30 31 34 32 26 25 25 24 26 25 29
6 10 13 5 18 26 22 21 21 21 19 15 16 18 16 9 10 8 12 15 17 19 17 22 24 27 25 25 28 30 30 29 28 28 27 25 27 27 29 33 32 30 27 26
5 10 10 2 6 11 15 11 15 19 15 16 15 14 17 7 6 8 12 17 17 23 16 18 21 24 27 26 28 28 29 27 26 26 25 27 29 28 27 26 26 25 26 25
6 7 4 3 4 6 18 5 8 5 5 6 4 7 2 5 8 9 12 15 14 19 18 21 23 22 25 27 27 29 28 27 28 27 25 24 24 24 24 23 23 23 22 21
12 5 6 5 8 7 4 2 16 16 9 4 4 6 8 7 10 15 19 20 15 11 14 14 20 22 22 23 23 29 32 29 27 26 23 20 19 20 20 21 20 19 18 17
10 6 8 15 2 6 2 19 9 6 5 4 4 5 9 8 9 13 18 21 11 5 3 7 9 13 18 25 27 25 25 26 25 23 22 22 21 20 19 18 17 18 18 18
5 5 5 12 9 8 13 14 14 14 16 14 14 13 9 7 6 8 15 19 13 3 3 5 8 15 19 21 23 24 25 24 25 24 22 20 19 17 15 16 17 20 20 20
3 8 5 9 7 14 16 18 19 17 15 15 14 14 8 3 5 9 6 14 11 3 6 7 8 14 17 23 24 25 27 26 25 24 23 20 18 17 17 18 19 20 20 19
5 6 13 5 16 22 23 21 21 18 12 10 12 7 3 1 1 6 10 7 5 8 11 14 15 19 20 20 20 24 25 23 22 22 21 22 22 19 17 17 15 17 17 15
3 4 7 12 22 19 21 21 20 16 8 11 7 6 5 4 6 8 7 12 11 12 14 19 21 22 19 18 15 14 21 23 22 22 22 22 21 25 20 19 17 13 12 9
5 14 15 14 13 18 19 17 15 11 8 7 8 9 8 9 11 13 14 14 12 16 19 18 15 15 18 18 20 21 22 22 21 21 22 22 22 22 26 24 20 18 14 11
9 14 5 12 12 17 16 13 9 8 8 7 7 7 7 9 11 12 13 14 17 18 17 16 17 17 14 17 20 21 22 22 24 24 23 23 22 22 20 17 17 15 10 7
14 12 9 11 12 12 11 10 6 6 7 7 7 7 7 8 13 15 15 14 13 14 15 15 17 19 16 20 23 25 25 25 24 25 24 22 20 18 17 14 13 11 8 5
15 11 9 10 12 13 11 9 5 5 5 7 9 9 12 13 16 17 18 18 17 21 21 19 20 20 19 20 23 26 27 26 24 22 19 18 16 14 14 13 12 9 7 6
12 10 14 12 10 11 9 7 5 4 5 7 9 12 16 20 22 25 27 26 27 29 28 28 28 24 23 22 22 23 21 18 16 15 15 15 14 13 11 10 9 6 3 2
8 8 8 8 7 5 5 3 3 5 7 10 12 17 22 26 31 31 31 30 30 32 29 25 22 21 20 19 19 19 17 17 15 15 14 13 13 11 11 10 9 7 4 2
7 6 4 2 2 1 3 3 5 9 14 17 20 25 27 31 35 35 32 32 31 31 27 22 19 19 20 18 17 17 16 14 13 13 13 12 11 10 9 8 7 5 4 4
7 7 4 4 4 6 9 10 11 14 17 20 26 28 31 29 29 31 29 32 29 27 22 19 18 18 17 14 12 13 13 12 11 11 10 10 9 8 7 6 6 5 4 4
9 9 9 9 11 11 12 13 17 22 25 27 27 29 30 29 29 27 27 30 24 20 17 15 14 14 13 12 11 12 11 11 11 11 10 10 9 8 7 6 5 4 4 4
9 11 13 14 16 19 18 20 23 25 26 27 28 26 25 26 25 25 25 24 18 14 13 13 13 12 12 11 12 13 13 12 12 11 11 10 8 7 6 6 5 5 6 7
13 14 16 19 21 23 23 25 26 25 26 25 24 23 23 23 21 20 20 17 14 12 13 15 15 13 12 14 14 14 14 13 11 10 9 8 7 6 5 5 6 6 7 8
15 18 20 21 23 25 27 25 25 25 25 24 23 21 19 18 18 17 17 16 14 13 15 16 15 13 13 14 13 12 11 10 9 8 6 6 6 5 5 6 6 7 8 8
17 18 19 20 21 22 21 20 21 20 19 18 15 13 12 12 13 15 14 14 14 13 14 14 13 12 12 11 11 10 8 8 6 6 6 5 5 5 6 6 7 8 9 10
14 16 17 17 16 15 15 14 15 14 12 14 14 13 13 14 15 14 13 13 12 12 12 11 10 9 9 8 8 7 6 5 5 5 5 5 6 7 7 8 8 9 10 11
14 14 14 14 13 12 11 10 10 10 9 9 12 12 12 13 12 12 11 11 10 10 9 8 7 6 6 6 6 6 5 5 5 6 6 7 8 8 9 9 10 10 11 12

GFSNGP_850_spd_087.txt.gz
Wind_Speed
15 19 16 17 14 14 18 17 18 17 20 18 18 18 20 19 8 9 11 6 4 12 19 24 28 30 32 31 32 33 33 33 36 37 33 32 33 34 36 40 39 38 39 37
13 15 20 21 20 21 19 19 23 22 25 20 15 17 16 21 22 15 14 11 5 6 12 18 24 29 32 33 33 33 35 37 32 32 30 33 33 34 34 35 36 35 36 35
12 15 11 13 20 21 17 17 20 21 21 21 18 13 14 15 17 21 10 11 11 8 8 13 20 23 28 31 32 35 33 31 30 30 30 31 30 29 30 32 32 34 33 32
5 9 10 10 5 3 7 13 20 25 25 21 19 15 19 18 11 7 11 12 13 7 8 8 12 19 22 25 29 34 34 32 32 31 29 29 29 29 29 29 30 31 32 33
4 8 14 21 10 3 5 15 20 22 21 18 25 23 20 15 2 4 8 10 9 12 12 10 8 14 21 23 26 29 31 32 32 32 30 30 31 30 26 32 37 35 33 33
8 9 6 5 5 6 6 8 17 22 17 3 5 8 2 9 6 4 6 9 12 12 14 12 12 13 18 21 23 27 26 25 25 26 26 26 28 38 42 38 34 33 30 28
12 11 9 3 8 9 3 7 27 30 19 25 5 7 3 4 7 7 8 11 13 11 8 6 6 12 18 18 22 22 20 19 22 24 27 34 39 36 35 32 27 25 24 20
12 10 13 11 2 2 2 7 9 14 21 24 31 6 8 9 8 5 7 11 12 15 10 6 4 8 9 14 25 32 35 36 32 31 33 32 28 26 24 24 25 24 22 20
4 6 4 10 15 12 14 12 16 18 15 13 23 12 9 4 7 7 8 8 9 10 7 7 5 8 16 22 24 22 24 27 25 25 23 23 24 24 22 22 23 22 21 20
3 5 6 10 10 15 16 16 19 19 19 16 19 14 11 4 4 6 7 6 7 5 7 1 1 6 13 17 18 20 24 26 27 26 26 25 23 20 19 17 18 21 21 21
6 13 13 11 14 12 16 17 20 20 17 18 16 12 8 7 7 7 5 5 5 6 8 7 7 9 11 16 19 24 26 25 24 22 22 22 20 19 17 17 15 18 19 21
4 8 8 11 15 15 18 19 18 18 18 15 15 12 9 10 7 6 6 7 8 13 15 12 13 15 14 14 18 21 23 24 24 23 23 24 24 26 19 17 17 17 16 14
7 14 12 9 6 17 19 19 17 15 15 15 13 11 9 8 9 9 9 10 12 12 11 16 16 12 9 9 16 19 20 22 23 24 26 26 24 25 29 25 21 20 18 17
11 16 7 15 12 18 18 17 14 12 13 12 11 10 9 6 6 8 10 12 12 13 16 14 14 16 15 13 14 18 23 23 23 23 24 26 27 28 28 27 24 22 15 12
15 12 8 12 14 16 16 15 12 12 12 11 10 7 7 7 7 8 9 11 11 13 15 13 14 17 13 15 22 25 24 25 26 27 26 25 24 23 22 20 19 16 13 10
14 9 8 10 11 12 13 13 11 11 9 8 8 8 5 6 8 10 11 12 13 17 19 20 21 22 19 19 22 25 26 25 25 25 23 22 20 20 19 17 16 15 14 14
13 10 14 13 13 11 10 9 7 6 6 7 7 6 6 9 13 16 19 19 23 25 26 26 28 26 25 24 25 27 26 24 23 22 21 19 18 17 15 13 12 10 10 9
8 8 9 10 10 8 6 6 5 2 2 2 5 8 12 15 21 24 24 24 27 30 28 26 25 23 23 21 21 21 20 20 19 19 19 18 17 16 14 13 12 10 8 6
10 9 8 7 6 3 3 4 5 4 4 6 10 14 17 22 25 27 28 21 26 28 24 21 19 20 20 20 19 18 18 17 17 16 15 15 14 13 13 11 10 9 7 7
9 8 8 7 4 4 5 7 8 10 11 12 17 22 25 24 21 22 20 20 23 20 19 19 18 18 17 16 14 14 13 13 13 13 13 12 12 12 11 11 10 9 8 7
9 9 9 9 9 8 9 10 13 16 18 20 24 26 26 25 22 19 19 23 18 15 15 14 14 14 13 12 11 12 13 13 13 13 12 12 12 11 10 9 7 6 6 5
9 10 11 13 14 16 15 16 18 20 22 23 23 22 20 19 18 19 19 17 13 11 11 11 12 12 12 12 13 14 14 14 13 12 12 11 10 9 8 7 6 5 5 4
11 11 13 14 16 17 18 19 21 22 22 21 19 19 19 18 15 15 16 13 11 11 12 14 14 13 12 13 14 14 13 12 11 10 9 8 7 6 5 4 4 3 3 4
13 14 16 17 18 19 21 20 20 20 20 20 19 17 15 14 15 15 14 12 11 10 13 14 13 11 11 12 12 11 11 10 9 8 7 6 5 4 3 3 3 4 5 6
14 15 15 15 17 18 18 18 18 16 15 14 13 12 11 10 10 11 12 12 12 12 12 12 11 9 10 10 10 8 8 7 6 5 4 4 3 4 4 5 5 6 6 7
11 11 12 13 12 11 11 10 11 10 10 11 11 10 11 11 12 11 11 11 9 9 9 8 8 8 8 8 7 6 5 5 4 4 3 4 4 5 5 6 7 7 8 8
11 11 10 10 10 10 9 9 8 8 8 8 9 9 9 10 10 9 8 8 7 7 6 6 6 6 6 5 5 5 4 4 4 5 5 6 6 7 7 8 8 9 10 10

GFSNGP_850_spd_093.txt.gz
Wind_Speed
8 7 11 12 13 15 8 9 8 11 14 9 7 10 6 9 18 17 12 16 4 17 32 36 38 36 33 29 28 28 33 36 37 39 41 42 41 40 41 41 41 42 44 48
6 8 9 12 14 13 11 11 10 8 8 7 14 20 23 26 22 26 16 20 3 2 17 37 35 36 33 30 29 29 32 34 34 35 37 40 41 41 41 40 39 38 40 43
3 7 8 6 8 11 14 12 7 5 8 15 16 18 22 31 32 15 16 20 19 13 10 17 16 30 35 34 32 31 34 34 36 36 36 36 40 43 44 41 39 38 38 39
3 5 2 5 8 11 6 13 12 11 14 13 16 29 22 30 22 7 20 19 16 13 10 6 8 9 16 34 34 36 35 36 38 37 36 35 36 38 41 44 45 44 41 39
2 2 6 9 5 5 7 8 10 11 13 13 25 27 6 34 28 22 23 21 15 12 10 8 7 9 4 10 39 37 37 37 39 41 39 36 36 36 36 37 38 41 45 43
1 3 3 2 11 15 11 3 9 10 12 14 22 9 5 25 26 26 22 21 17 11 10 9 9 9 15 10 7 31 38 39 39 39 42 41 39 36 34 35 39 40 42 45
5 3 5 7 1 5 3 2 12 15 10 12 8 14 25 11 15 17 20 19 17 18 16 14 12 11 11 13 11 15 32 33 38 38 38 37 37 39 40 41 41 40 38 39
3 2 6 17 8 5 4 16 18 16 17 11 16 28 12 15 16 15 13 17 20 21 20 19 16 13 11 10 9 8 13 31 36 37 39 39 36 39 40 39 39 39 37 35
6 4 4 17 16 15 17 13 15 18 19 21 22 18 14 19 16 16 16 16 16 18 18 23 24 20 15 12 8 6 3 10 19 25 29 32 37 40 38 36 37 39 38 36
2 9 10 16 13 11 13 16 14 15 17 19 18 15 14 15 16 16 18 15 14 18 25 26 26 23 19 14 9 5 4 4 7 11 18 23 25 27 30 32 32 36 29 30
5 13 17 17 14 11 11 14 13 14 18 17 15 15 13 11 14 15 11 13 14 15 15 17 17 22 22 20 15 8 4 6 8 10 14 16 18 19 23 24 25 29 31 31
3 10 13 10 10 13 14 14 13 11 15 17 15 13 9 12 12 11 12 13 12 12 10 13 14 17 17 17 14 19 15 10 6 10 18 22 25 27 19 18 20 25 33 32
4 9 13 11 12 13 15 17 10 10 12 12 13 12 10 11 10 9 11 11 12 12 11 10 9 10 10 12 13 14 17 15 13 13 17 22 28 35 40 37 32 30 30 30
11 12 10 13 10 9 8 14 8 8 11 11 10 9 8 9 9 11 12 12 10 9 10 10 11 11 9 11 13 15 17 19 21 24 26 29 33 37 38 36 36 33 27 26
11 14 10 10 13 13 9 8 11 10 10 11 12 11 9 8 10 12 11 11 11 11 13 13 13 15 12 13 16 19 21 23 25 27 29 29 30 31 31 31 31 31 24 21
11 10 9 13 12 10 8 10 9 8 8 9 10 10 10 11 12 13 13 13 14 19 18 18 19 17 16 18 21 24 26 28 27 28 29 27 27 29 28 27 27 25 21 18
9 12 11 9 8 5 7 7 5 4 4 6 7 8 9 13 16 17 18 18 19 21 20 20 19 17 19 21 23 25 25 25 24 24 24 23 22 23 23 23 22 20 18 15
5 4 4 5 6 6 4 4 2 2 4 6 7 9 11 14 19 20 21 20 20 21 21 19 17 19 21 22 23 24 25 25 24 24 23 22 21 20 19 19 19 17 15 12
6 5 5 4 3 2 4 6 8 8 9 9 11 15 17 19 19 20 19 19 22 23 21 17 15 16 16 15 16 18 19 20 20 20 19 18 18 17 16 15 14 13 13 11
8 8 9 9 7 8 9 10 12 15 15 16 18 19 19 18 17 17 16 20 20 19 16 16 17 17 17 16 15 15 15 15 15 16 16 15 15 15 14 13 13 12 11 9
10 11 12 12 13 12 11 10 11 14 14 13 13 16 16 15 14 14 16 19 17 13 13 13 14 14 13 12 11 13 14 15 15 16 15 15 14 13 11 10 10 10 9 7
8 10 11 12 14 16 16 16 16 17 17 17 16 15 14 14 13 13 15 16 14 11 12 13 13 11 11 10 11 12 12 13 14 14 14 13 12 11 11 8 7 6 5 4
10 11 11 13 15 17 17 16 16 15 14 13 11 10 11 12 11 12 15 14 14 12 12 12 11 11 11 12 12 12 12 11 11 11 11 10 8 7 5 4 5 4 1 1
13 13 15 16 16 16 18 16 14 13 14 13 13 12 11 12 14 15 16 15 12 11 11 11 10 10 11 11 11 11 11 10 10 9 8 7 7 5 3 2 2 2 1 2
16 15 14 14 15 16 14 12 11 10 9 9 9 8 8 9 9 13 11 11 10 10 10 10 9 9 9 10 9 9 9 8 8 7 6 5 4 4 3 1 1 3 4 4
11 13 11 9 10 9 8 7 8 7 7 8 9 10 10 10 10 10 9 9 9 8 8 8 8 7 7 7 7 7 7 7 6 5 5 4 4 3 2 3 4 5 5 6
9 8 8 9 8 7 5 4 4 4 3 5 9 9 8 8 8 8 7 6 6 7 7 6 6 6 6 6 5 6 6 5 4 5 4 4 5 5 5 6 7 8 9 9

GFSNGP_850_spd_096.txt.gz
Wind_Speed
1 3 4 6 5 13 4 7 3 4 6 4 7 8 12 9 21 10 33 35 14 23 30 33 36 37 36 34 32 31 29 30 36 38 38 38 38 37 38 41 42 40 41 45
3 5 5 6 6 4 8 8 11 12 5 8 7 5 10 15 18 5 19 25 16 14 17 22 30 34 35 34 33 31 31 32 30 35 39 40 39 39 38 40 42 42 41 42
2 6 6 4 3 7 3 9 5 0 4 7 9 12 15 18 19 19 17 23 24 27 20 10 12 16 25 29 30 32 33 31 31 33 36 38 41 40 41 42 40 43 42 42
2 3 2 3 9 10 13 10 9 8 9 8 9 5 21 27 19 19 17 20 20 19 18 16 13 9 16 24 23 30 34 34 32 31 35 37 37 40 42 40 41 41 42 42
2 0 5 3 5 3 3 8 11 7 9 10 15 4 16 21 18 18 16 17 19 18 17 12 11 9 5 10 24 26 32 34 35 33 34 36 39 39 37 40 41 41 39 37
2 2 3 1 6 11 7 4 14 11 11 10 19 7 4 14 12 15 17 18 18 18 17 18 17 13 8 3 4 21 27 33 31 33 37 39 36 37 37 37 39 41 41 42
2 0 5 1 8 12 3 1 12 14 15 14 7 8 22 21 17 15 15 18 19 19 20 21 19 18 14 10 6 6 13 23 29 34 36 36 35 38 40 39 40 40 40 40
3 3 6 9 1 3 5 3 9 13 14 12 9 11 18 15 20 16 19 19 19 19 20 18 16 15 16 16 15 14 12 10 15 29 36 38 36 37 40 41 42 45 45 44
5 3 6 17 16 13 11 10 10 9 11 7 10 11 11 10 13 16 15 15 15 18 20 22 17 14 15 16 13 13 13 8 7 12 20 30 31 35 38 41 41 39 35 34
2 6 11 13 13 16 14 11 8 8 9 10 10 11 10 12 13 12 11 12 13 16 20 20 20 18 17 14 11 9 9 7 3 4 7 10 14 20 23 25 32 37 33 30
5 6 13 14 13 10 12 10 8 10 13 13 12 12 11 12 12 11 9 10 10 14 15 14 15 17 18 17 13 12 12 12 9 5 2 5 8 7 7 10 11 22 24 27
2 9 8 9 10 11 14 11 9 9 12 13 13 11 10 11 11 11 11 9 9 10 9 10 10 15 15 16 15 14 14 14 16 17 15 11 9 17 22 15 15 16 29 32
3 1 12 10 12 13 13 8 8 8 9 9 10 9 9 9 9 9 9 9 9 9 8 7 8 10 11 12 13 14 16 16 15 18 22 27 32 36 42 37 35 32 31 33
14 6 8 9 8 9 6 6 7 7 9 9 8 8 7 6 6 7 9 9 8 7 6 8 8 10 9 8 9 10 12 14 15 19 21 28 33 36 38 39 40 36 28 26
11 11 10 9 7 6 5 3 4 7 9 10 10 10 8 7 7 9 8 8 7 7 8 8 8 9 8 8 8 11 13 17 19 23 25 27 30 33 33 33 34 31 27 25
4 4 4 7 8 7 5 6 5 7 8 9 8 9 9 9 10 10 9 7 5 10 11 10 11 10 8 10 13 15 17 19 20 22 25 25 27 29 28 27 27 23 20 19
2 5 7 6 5 3 5 6 5 4 3 4 5 7 7 10 11 13 13 12 11 13 13 11 11 8 8 10 13 18 19 20 19 21 21 22 21 22 22 21 19 18 17 13
3 0 1 2 1 2 4 5 4 1 2 3 4 5 8 10 13 14 14 14 14 14 16 15 10 9 10 10 12 14 17 19 19 18 18 17 17 16 16 16 15 15 15 13
5 4 2 0 1 2 2 2 3 4 5 5 7 10 12 13 13 13 12 12 15 16 16 12 11 11 11 11 11 12 13 14 15 15 13 13 13 12 12 11 12 12 12 12
5 5 4 3 3 4 6 7 6 8 9 9 12 13 14 13 13 12 11 13 14 15 11 10 11 12 12 11 10 11 12 12 12 12 12 12 11 12 11 10 10 11 11 10
6 6 6 6 7 8 9 8 8 11 10 9 9 12 12 12 10 10 11 13 13 10 9 9 9 10 9 9 8 8 8 9 10 10 10 11 11 11 10 10 9 9 8 7
4 6 8 8 10 12 10 9 9 10 10 10 10 10 10 11 10 10 12 13 11 8 9 10 11 10 9 8 8 8 9 9 10 10 9 9 9 9 9 7 6 6 5 5
7 8 9 9 11 13 12 11 10 9 9 8 8 8 8 10 10 9 11 11 10 10 10 10 9 7 7 8 8 9 9 9 9 9 8 8 7 6 5 4 4 3 3 2
12 13 13 12 11 11 12 11 9 9 9 9 9 9 8 8 10 11 12 11 9 8 8 9 8 8 8 8 8 8 8 8 8 7 6 6 5 4 3 2 1 1 1 1
11 11 11 11 11 11 10 8 6 6 4 4 5 5 5 7 7 10 9 8 7 6 6 7 7 7 7 7 7 7 7 6 6 5 5 4 3 2 1 0 1 1 2 3
7 8 7 6 6 6 5 4 4 5 4 5 6 6 7 7 7 7 6 6 5 5 5 6 6 6 5 5 5 4 5 4 4 3 3 2 1 1 1 2 3 4 4 5
7 5 5 6 4 2 1 0 0 1 2 3 5 6 5 5 5 5 5 5 4 4 4 4 4 4 4 4 4 3 3 2 2 1 2 2 1 2 3 4 6 7 8 9

GFSNGP_850_spd_099.txt.gz
Wind_Speed
9 3 2 3 3 5 3 4 3 3 5 5 7 11 12 15 6 10 28 34 33 14 11 19 26 31 33 33 34 31 29 28 28 29 28 30 31 32 32 33 32 32 31 35
3 4 2 2 5 4 5 3 3 4 11 4 8 17 17 16 11 9 14 22 23 20 13 8 10 19 26 29 31 30 28 27 26 27 29 31 32 33 33 33 35 35 38 38
3 5 6 1 2 3 7 6 1 1 2 6 4 8 13 14 17 16 13 14 18 19 17 14 6 9 15 21 23 25 28 28 27 26 28 30 33 34 35 35 35 37 40 41
3 5 1 2 4 13 13 9 8 6 4 4 7 2 13 16 17 17 17 17 15 18 18 14 13 2 6 13 15 18 24 26 25 25 25 28 30 33 35 36 37 37 40 41
2 1 4 3 3 3 2 4 8 3 8 10 13 13 15 19 16 14 14 16 18 16 14 11 14 10 6 3 13 15 20 21 22 24 27 29 32 34 33 34 37 39 39 41
1 2 3 3 3 6 1 2 4 5 7 9 13 3 2 14 14 12 13 14 14 13 12 11 12 11 7 7 7 14 16 17 22 27 30 29 30 32 34 36 36 35 36 40
2 3 5 2 6 8 4 2 3 4 7 8 3 4 5 11 16 13 12 13 12 12 14 14 12 10 8 8 7 5 4 8 16 22 26 30 33 28 31 34 34 37 40 42
3 3 6 9 3 3 3 3 4 8 9 9 8 7 8 11 13 12 13 13 16 17 19 19 16 13 12 10 9 8 8 8 9 11 18 26 30 34 34 35 36 38 42 45
4 2 5 16 15 13 7 9 9 9 9 8 7 9 9 10 11 12 14 13 15 17 21 22 22 19 16 15 10 8 7 6 6 5 7 11 19 27 32 34 33 34 34 33
3 7 10 15 18 15 11 13 9 8 9 9 9 8 8 8 10 11 12 13 13 15 21 24 23 22 22 19 17 13 10 8 8 5 4 2 3 7 13 20 24 21 17 17
4 4 7 17 14 11 12 10 9 9 11 10 9 10 9 9 10 12 13 11 12 13 15 17 17 18 18 20 17 13 13 13 15 15 14 13 13 13 9 8 3 8 11 8
1 4 7 7 11 8 9 10 9 7 9 10 10 10 10 10 10 9 10 10 11 12 10 11 11 13 16 17 14 14 14 14 16 18 20 23 23 25 25 21 17 16 18 18
5 7 13 12 12 8 8 8 8 8 7 7 8 7 8 9 9 9 9 9 11 12 11 10 11 11 12 12 11 11 14 16 16 18 20 24 28 29 34 33 33 33 31 29
10 7 9 9 7 8 8 7 7 8 9 9 8 6 6 6 6 7 9 10 9 8 9 10 10 10 10 9 8 11 13 17 17 19 20 23 28 32 34 35 36 33 28 25
11 11 10 5 3 6 8 9 8 8 9 9 8 6 6 6 6 7 8 8 9 8 9 10 10 10 9 7 7 11 14 17 19 19 21 23 24 27 28 29 29 29 23 21
5 4 5 6 3 5 7 7 7 7 6 6 5 6 7 7 8 9 9 8 7 10 11 11 11 10 9 7 7 10 14 15 18 20 21 22 23 24 25 25 25 22 19 16
4 5 6 6 6 5 5 6 7 5 4 3 2 3 5 6 8 10 11 11 10 10 11 10 10 8 7 8 9 13 15 16 16 17 18 18 19 19 19 18 18 17 15 12
4 3 4 4 2 4 5 6 5 4 3 1 0 1 4 7 10 11 11 10 10 10 11 12 9 8 9 9 9 12 14 15 15 16 16 15 15 14 13 12 12 12 12 11
4 4 2 1 1 3 3 4 4 3 2 2 2 5 7 9 9 10 9 8 10 12 13 10 8 8 9 10 8 10 11 12 12 13 12 12 12 12 11 11 11 11 12 11
4 4 4 4 3 4 5 6 5 5 6 5 6 7 8 9 8 6 6 8 12 12 9 8 8 8 9 9 7 8 10 10 10 10 9 10 10 10 10 10 10 9 9 9
6 6 5 5 6 7 7 8 6 7 8 5 4 6 7 7 5 5 5 7 10 8 7 7 7 8 8 8 7 7 6 6 7 8 8 8 9 10 10 9 9 9 8 7
7 7 8 7 8 9 9 8 7 7 7 6 6 6 5 5 5 4 6 8 7 6 6 7 8 9 8 7 7 7 7 7 7 8 9 9 9 8 8 8 6 6 6 5
7 8 9 9 10 11 10 9 8 7 6 7 6 5 4 5 6 5 5 7 6 6 7 7 8 7 6 5 5 5 6 7 7 8 8 8 7 7 6 5 4 3 3 2
10 9 9 9 9 8 9 9 8 8 7 7 6 6 5 4 4 6 6 7 6 5 5 6 6 7 6 6 6 6 7 7 7 6 6 5 4 4 3 3 3 1 0 1
10 10 10 8 8 8 7 6 5 5 4 3 4 3 3 4 4 7 6 5 5 5 5 6 6 6 5 5 6 6 6 6 5 4 4 3 2 2 1 1 1 2 3 4
8 8 7 6 6 6 6 5 5 5 4 3 3 4 4 4 4 4 3 3 3 4 4 5 5 4 4 4 4 4 4 4 4 3 2 1 0 1 1 2 3 5 6 7
3 2 1 1 1 2 3 4 5 5 3 2 2 3 3 3 3 3 3 3 2 2 2 3 3 3 3 3 2 2 1 1 1 1 0 2 3 4 4 5 6 7 8 9

GFSNGP_850_spd_102.txt.gz
Wind_Speed
4 5 10 5 3 2 1 2 4 3 3 2 5 7 10 17 17 11 15 22 29 28 24 2 10 18 22 28 30 27 25 23 20 22 21 22 22 23 24 26 24 21 20 20
3 4 10 7 8 4 8 7 10 6 4 1 4 11 17 14 17 14 15 18 21 22 21 16 9 10 12 19 25 25 22 20 17 16 22 22 22 22 23 25 26 25 25 24
1 2 7 5 5 2 4 3 2 4 3 7 5 9 14 15 15 15 17 19 21 24 25 21 12 4 8 12 14 15 17 20 19 18 17 21 23 23 24 26 27 29 29 29
3 4 2 4 4 8 10 5 6 4 6 7 4 10 14 14 12 14 16 20 22 22 18 17 17 9 2 8 7 8 6 12 13 17 19 19 20 24 26 27 29 29 30 30
1 1 5 2 2 1 3 0 4 5 6 9 9 12 14 19 16 13 13 15 16 17 17 16 15 11 7 14 16 15 14 14 15 19 20 21 24 24 24 26 28 28 29 30
1 1 3 2 1 8 2 2 0 4 5 5 15 3 4 17 18 16 15 17 16 14 14 13 16 11 15 15 12 11 11 14 17 19 20 22 24 24 27 29 27 25 24 26
2 1 6 3 7 5 2 2 5 7 8 12 5 6 8 12 15 16 16 17 15 15 19 18 17 17 16 13 12 7 2 3 8 13 17 21 22 24 25 24 27 30 32 32
3 3 6 11 5 1 2 12 13 13 11 10 9 9 10 11 13 14 15 16 19 20 23 22 20 19 19 19 17 12 8 5 3 4 7 11 15 19 26 28 29 34 34 34
4 2 6 11 9 11 10 14 12 13 12 9 10 10 10 11 13 14 12 15 16 19 20 22 22 21 22 21 17 14 12 11 8 6 3 3 3 6 13 22 27 29 26 24
4 4 9 10 15 16 17 18 15 14 13 13 11 10 10 11 12 14 13 14 13 15 18 22 22 22 22 20 19 15 13 14 13 11 10 8 6 4 4 4 5 8 8 3
4 5 6 13 11 11 14 13 15 15 14 13 10 10 12 13 14 14 14 14 15 16 16 18 18 19 19 19 18 16 17 18 17 17 17 17 15 14 11 11 8 10 12 12
2 7 6 6 9 10 12 14 14 12 12 11 9 9 9 12 13 14 14 14 14 15 14 15 14 14 15 14 14 14 17 19 18 18 20 22 22 22 22 19 18 18 18 17
4 10 16 11 12 12 12 12 12 11 12 11 10 9 8 9 10 11 12 13 15 15 14 13 13 13 14 12 11 12 17 18 16 16 17 21 24 25 29 29 29 29 26 25
10 7 8 12 7 8 10 11 10 10 11 11 10 8 8 9 8 10 12 12 12 11 12 14 14 15 14 12 10 11 14 15 16 17 17 20 23 26 28 29 32 32 28 26
10 11 10 9 6 7 7 8 9 9 10 10 10 9 9 9 11 11 9 9 10 11 12 13 13 15 13 11 9 11 14 13 15 18 20 22 24 25 26 28 30 30 26 24
4 4 5 5 6 6 7 8 8 8 8 8 8 9 10 10 11 11 11 11 9 13 13 13 13 13 11 10 10 12 14 14 15 18 20 21 21 22 23 23 23 23 21 20
3 3 6 6 6 5 7 7 6 5 5 6 6 6 6 8 10 11 12 12 12 11 13 13 13 11 11 11 11 13 13 14 15 17 18 18 18 18 17 16 15 15 16 15
4 3 3 4 3 3 5 5 6 5 5 5 4 4 5 6 10 10 10 10 10 11 13 14 13 11 12 12 11 11 12 13 14 15 15 15 14 13 12 12 13 13 15 15
4 3 1 3 3 3 3 5 6 6 7 6 5 7 8 9 9 8 7 6 8 11 14 12 11 10 11 12 10 10 10 11 12 13 12 11 11 11 11 11 12 13 14 13
7 7 7 8 7 8 8 10 9 9 10 8 8 9 9 9 8 6 6 8 12 12 10 9 8 9 10 10 9 9 10 10 10 10 9 9 9 10 11 11 12 12 11 11
7 7 8 8 9 10 11 11 9 9 10 8 7 8 8 7 6 5 5 7 9 8 7 7 7 8 8 8 7 7 7 7 8 8 8 8 9 10 10 11 11 10 10 9
8 9 10 9 9 11 12 10 10 10 10 8 8 8 6 6 6 6 7 9 8 7 7 7 8 8 7 6 6 7 8 8 8 9 9 9 9 9 9 9 9 8 8 7
9 10 12 11 11 12 11 10 9 9 8 8 7 6 5 5 5 5 5 8 7 8 6 7 7 8 7 6 6 6 7 7 8 8 8 8 8 7 7 6 6 6 5 4
10 11 11 11 11 10 11 11 10 9 8 8 8 7 7 6 6 7 7 7 6 6 5 7 8 7 6 6 6 6 7 7 7 7 6 6 6 5 4 4 3 3 2 1
10 10 10 10 9 9 9 8 7 7 6 5 5 5 5 5 5 6 6 5 6 6 6 6 6 6 6 6 5 5 5 5 5 5 4 4 3 3 2 1 1 1 2 3
9 8 9 8 8 8 7 7 7 7 6 5 4 4 4 4 3 4 3 3 3 4 4 4 4 4 4 4 3 3 3 3 3 3 2 2 2 1 0 1 2 2 4 5
5 4 4 3 3 4 5 6 7 7 5 4 3 3 3 3 3 3 3 3 3 3 3 4 4 3 3 3 3 2 2 2 1 1 2 2 2 3 3 4 5 6 7 8

GFSNGP_850_spd_105.txt.gz
Wind_Speed
7 4 4 4 5 2 3 1 5 2 2 4 6 7 9 12 15 15 17 19 25 29 34 31 11 5 9 19 23 25 23 20 18 19 21 20 20 21 21 22 20 19 18 18
2 5 4 4 6 6 7 4 7 9 7 7 6 9 12 14 15 16 18 20 18 13 16 24 18 6 11 15 21 20 18 15 11 10 19 20 19 19 21 22 24 22 21 19
1 2 6 5 6 8 3 2 2 4 3 7 7 9 13 15 15 17 20 20 24 25 27 24 19 10 10 16 16 16 12 10 9 7 7 16 18 19 20 21 22 25 24 22
2 3 2 5 4 6 8 6 7 3 6 9 3 11 14 16 16 16 17 19 22 23 22 24 21 16 10 15 11 11 10 6 2 7 7 8 10 19 19 19 21 22 24 24
1 3 3 2 3 3 1 2 5 3 6 8 2 11 17 19 17 15 15 16 16 16 15 14 19 22 16 18 20 17 16 7 16 13 13 14 15 13 14 19 20 23 23 23
1 3 1 2 1 6 2 1 4 5 7 5 9 1 4 15 18 16 16 15 16 16 14 15 17 18 15 20 15 13 14 14 12 14 15 16 18 20 16 17 20 18 23 26
6 2 3 5 10 3 2 2 6 9 11 14 6 6 6 10 13 14 15 15 16 21 21 18 15 13 17 20 18 13 8 4 3 7 10 12 14 17 21 23 24 27 28 28
3 3 6 12 2 1 6 10 9 12 12 11 9 9 10 11 12 14 16 17 18 21 24 23 22 21 22 20 17 13 9 5 2 2 5 7 9 12 14 21 24 27 27 28
2 1 4 10 13 12 9 10 8 11 10 9 9 9 10 12 12 14 14 16 17 21 23 24 22 23 23 22 18 16 14 12 9 5 3 1 1 3 5 10 16 18 16 15
3 5 7 13 16 17 15 16 11 11 9 10 10 9 11 12 13 15 15 16 15 17 21 22 22 21 20 20 19 18 19 17 16 14 12 11 10 9 8 8 9 10 9 9
2 4 8 18 14 13 13 12 11 10 10 11 10 12 11 13 14 15 15 16 16 17 18 18 17 18 20 20 19 20 19 19 18 19 19 19 18 17 15 16 11 12 13 13
2 7 8 9 10 10 13 11 10 9 11 11 11 11 10 13 13 14 14 14 15 17 16 18 17 17 17 17 17 17 19 19 18 19 20 23 24 26 25 21 19 18 16 14
2 11 17 14 12 10 11 11 12 12 12 10 10 10 10 11 12 12 13 14 16 16 16 16 16 17 17 15 14 17 18 17 17 18 20 23 25 26 30 28 29 29 28 26
8 5 10 6 6 7 9 12 11 11 11 10 9 8 8 9 9 11 13 13 12 13 14 15 14 15 14 11 10 13 16 15 15 18 20 22 24 27 30 31 32 32 30 29
10 11 10 8 6 8 8 7 9 10 9 10 9 9 9 10 12 12 10 11 11 12 13 14 14 14 12 10 10 11 12 15 16 17 19 21 24 26 27 29 30 29 25 22
4 6 5 6 6 6 6 8 9 9 8 8 8 9 10 10 11 11 11 11 9 13 14 13 13 13 11 10 9 10 12 14 16 18 19 20 22 23 24 24 23 21 19 19
6 3 5 5 5 7 8 7 6 5 4 5 6 7 8 9 11 12 12 12 12 12 13 13 14 12 11 10 10 11 13 13 14 16 16 16 17 17 17 16 16 15 15 15
4 3 4 4 3 3 5 5 4 4 5 6 7 9 9 10 12 12 12 11 11 11 12 13 13 11 11 10 10 11 12 14 14 15 15 15 14 14 13 13 13 13 16 15
4 3 3 4 3 2 2 4 5 6 7 8 8 10 10 11 10 10 9 7 9 11 13 12 10 9 10 10 9 10 11 11 12 13 12 12 12 13 12 12 13 14 15 15
5 6 6 6 6 7 7 8 8 9 10 10 10 10 9 10 10 9 8 10 12 12 11 10 9 8 9 9 8 9 9 10 10 11 10 10 11 12 13 13 13 13 13 12
7 8 8 8 9 10 10 10 8 10 11 10 9 9 9 8 7 8 7 8 10 9 8 6 6 7 7 7 7 7 7 7 8 9 9 9 10 12 12 12 12 11 10 9
9 9 10 10 10 12 12 11 10 10 10 10 10 10 8 9 9 8 9 10 9 8 7 7 7 7 7 7 6 7 8 8 9 9 10 10 10 10 10 10 10 9 9 8
11 12 12 11 11 11 11 10 10 10 9 9 9 8 7 8 7 7 7 9 9 8 7 7 8 8 7 6 7 7 7 8 8 9 9 9 9 9 8 8 7 7 6 5
12 12 12 12 12 10 11 11 10 10 10 9 9 9 9 8 8 9 9 9 8 7 6 8 8 8 7 7 8 7 8 7 7 7 7 6 6 6 6 6 5 4 3 3
11 11 11 10 9 10 10 10 9 8 7 7 7 7 7 7 6 7 7 7 7 7 6 7 7 7 7 6 7 6 6 6 6 5 5 5 4 4 4 3 3 2 1 1
10 9 8 8 8 8 8 8 7 7 7 6 5 5 5 5 5 5 5 5 5 5 5 6 5 5 5 5 5 5 5 4 4 4 4 3 3 2 2 1 1 1 2 3
5 4 4 4 4 5 5 6 6 5 4 4 3 4 4 5 5 5 5 4 5 5 5 5 5 4 4 4 4 3 3 2 2 2 2 1 1 1 1 1 2 3 4 5

GFSNGP_850_spd_108.txt.gz
Wind_Speed
6 4 4 5 6 9 12 11 6 4 5 7 4 7 8 10 11 13 16 19 21 23 26 36 36 21 4 16 19 21 24 28 24 25 25 20 20 20 20 19 18 17 17 15
5 5 6 9 11 11 10 7 7 7 7 3 9 8 10 11 13 16 17 19 20 24 26 30 36 25 8 13 22 21 22 20 20 22 26 23 19 18 19 19 19 17 17 15
0 1 3 8 13 13 10 4 5 7 6 5 4 8 10 11 14 16 17 19 22 23 25 27 29 23 11 15 20 14 15 14 15 13 20 21 18 18 18 18 19 21 19 18
2 4 4 5 5 9 7 3 3 5 3 4 8 12 11 15 15 15 19 20 20 21 21 22 23 17 5 19 19 18 19 17 15 14 12 13 17 16 16 16 18 18 19 20
3 5 3 6 4 2 4 5 6 3 3 3 15 10 15 17 16 17 18 19 19 18 17 19 21 19 12 24 27 23 18 16 17 16 14 11 10 10 13 15 15 16 17 18
2 4 2 6 5 14 7 4 4 7 8 9 4 0 4 14 16 16 17 18 18 19 19 17 20 16 21 23 23 18 17 14 14 14 15 15 14 12 13 11 12 17 20 21
7 4 0 8 9 16 5 4 9 10 11 14 7 6 6 10 13 13 15 17 17 18 22 24 21 20 26 25 25 16 12 9 10 7 5 7 11 14 16 16 19 19 21 22
3 3 3 19 2 5 5 10 10 12 10 10 9 8 9 10 12 13 14 15 16 19 23 25 25 24 26 29 23 16 8 11 11 8 5 4 5 8 13 18 21 22 21 22
5 4 7 11 11 11 8 9 10 11 8 8 8 8 8 10 11 13 14 14 14 16 20 23 23 23 26 25 20 18 15 15 14 10 8 6 4 6 9 12 15 17 16 15
4 7 8 11 13 13 12 12 10 10 9 9 9 8 8 9 11 13 14 15 14 14 17 19 19 21 22 20 20 16 18 19 17 14 13 12 11 11 12 13 13 13 11 10
2 5 6 12 11 9 10 10 11 12 10 9 8 8 8 9 11 12 13 14 14 15 15 16 16 17 18 18 16 16 16 19 22 22 22 21 21 20 19 18 13 13 14 12
3 8 6 6 7 8 10 12 11 8 7 9 8 8 7 9 9 10 12 12 14 14 15 15 14 14 14 13 13 13 15 19 21 23 25 26 27 29 27 24 21 21 20 19
3 10 14 10 9 9 9 9 9 7 7 6 8 7 7 7 7 9 10 12 13 14 14 13 13 13 13 12 12 15 17 17 19 21 23 24 28 29 32 31 31 30 28 27
6 5 7 4 5 6 7 7 7 7 7 8 7 6 6 7 7 8 10 11 11 10 12 12 13 13 14 13 11 14 17 18 19 20 21 23 26 28 27 27 30 30 29 28
9 7 10 7 5 6 4 4 5 5 6 7 7 7 6 7 9 9 8 8 9 9 11 12 12 14 13 12 12 12 15 17 19 19 21 22 22 22 23 24 26 25 23 21
3 6 6 6 5 5 4 4 3 4 5 5 5 6 7 7 8 8 9 9 8 12 12 13 12 13 11 12 11 13 14 16 17 18 18 19 19 19 20 21 20 19 19 19
3 2 4 4 4 4 5 5 4 3 3 3 3 4 5 6 7 9 10 11 11 12 12 13 13 12 11 11 11 12 13 14 14 15 15 15 16 17 16 16 16 15 15 15
6 4 3 3 3 3 4 5 5 5 4 4 5 5 5 6 8 9 10 10 10 10 11 13 12 11 10 11 11 11 11 11 12 12 13 13 13 12 12 12 12 13 15 13
6 5 5 6 5 5 5 5 5 6 7 7 7 7 7 7 7 7 6 6 7 8 11 11 10 9 9 10 10 10 10 10 10 10 10 10 10 10 10 11 12 12 13 12
7 7 7 6 6 6 7 8 8 8 9 8 8 8 7 8 8 7 7 8 9 9 9 8 8 8 8 9 8 8 8 8 8 9 9 8 8 8 9 10 11 11 11 11
7 7 8 8 8 8 9 9 7 8 8 8 6 6 6 6 5 7 7 7 8 8 7 6 5 6 6 7 6 6 7 6 6 7 7 7 7 8 9 9 9 9 9 9
8 9 9 9 9 9 9 9 9 8 8 7 6 7 7 7 8 7 7 8 7 8 7 7 6 6 6 5 5 6 6 6 7 7 8 8 8 8 8 8 8 8 8 8
10 10 11 10 9 9 9 9 8 8 7 7 5 5 4 4 5 4 5 7 7 7 7 7 7 7 6 6 6 6 6 6 7 7 8 8 8 8 8 7 7 7 6 6
10 10 10 10 10 9 9 9 8 8 7 6 5 6 6 5 6 6 6 6 6 6 5 7 7 7 6 6 7 7 7 7 7 7 7 7 7 6 6 6 5 5 5 3
10 10 9 8 7 6 7 6 6 5 5 4 4 5 5 4 4 4 5 5 5 5 5 6 6 6 5 6 6 5 6 6 6 5 5 5 5 5 5 4 4 3 2 2
7 5 5 6 5 4 4 4 3 3 3 3 3 3 3 3 3 4 4 4 4 4 4 4 4 4 4 4 4 4 4 4 3 3 3 3 3 3 3 3 2 2 2 2
4 4 2 2 2 2 2 2 2 1 2 2 2 3 3 3 3 3 3 4 4 4 4 4 4 3 3 3 3 2 2 2 2 2 2 2 2 2 2 2 2 2 3 4

GFSNGP_850_spd_111.txt.gz
Wind_Speed
3 9 4 4 10 10 12 12 9 4 14 16 5 14 14 12 8 10 12 15 17 20 22 23 26 31 30 18 12 19 21 24 30 34 28 23 22 21 21 22 20 17 17 15
9 8 6 6 7 7 11 10 11 12 9 15 12 16 13 10 10 12 14 15 17 18 21 23 26 33 33 23 9 17 24 27 32 29 29 23 23 22 21 23 20 18 17 17
3 3 3 7 11 12 11 11 8 12 6 4 10 11 11 9 11 12 14 17 18 20 21 22 27 32 32 23 11 20 23 26 25 28 28 24 22 21 20 20 20 20 18 18
5 3 5 4 7 8 10 8 7 2 7 8 13 14 11 10 11 13 14 17 19 21 21 22 24 27 26 15 4 15 20 19 20 22 25 25 21 19 19 18 18 18 17 17
4 5 7 8 8 8 10 4 9 6 7 8 16 13 12 12 12 12 14 16 19 19 19 19 22 25 23 13 8 12 22 25 24 24 23 20 18 18 17 17 17 15 14 15
5 4 2 7 10 15 17 3 7 6 8 8 8 3 3 12 12 12 14 17 18 18 20 17 21 23 23 18 18 15 13 20 22 22 22 24 23 22 19 16 17 20 19 18
8 6 5 14 11 8 5 4 9 9 10 10 5 5 5 8 11 13 13 16 17 16 20 21 21 24 25 22 23 21 14 18 18 20 21 21 21 22 21 20 19 17 18 20
4 5 2 22 5 5 1 7 9 12 11 9 8 6 6 9 12 14 16 16 17 18 19 21 22 23 24 28 22 18 20 20 17 18 14 16 16 16 17 18 14 17 18 18
6 4 7 12 11 11 10 8 10 10 9 7 6 7 8 10 12 15 16 16 17 17 17 18 21 23 26 26 22 25 26 21 20 18 15 16 14 13 13 12 16 17 15 14
6 6 6 11 10 10 10 10 10 10 9 8 7 7 9 10 12 13 15 17 17 16 17 17 19 19 21 21 20 22 25 25 21 20 19 17 16 14 13 13 13 13 12 11
2 4 2 8 10 9 9 9 10 11 11 9 7 9 10 11 12 13 14 15 16 18 18 18 17 18 19 19 18 23 24 22 26 29 29 27 27 24 20 17 13 14 15 14
3 9 4 7 7 8 9 11 11 9 9 10 10 10 9 10 11 12 14 15 15 16 16 18 17 17 18 19 19 20 20 21 25 28 30 29 28 29 27 24 22 21 20 17
2 7 9 6 7 8 9 9 10 10 11 10 10 9 9 9 11 12 12 13 15 16 16 16 16 16 17 19 17 18 20 18 19 23 26 27 26 27 29 27 26 26 25 25
3 1 3 5 4 6 8 8 11 10 10 11 9 8 8 9 9 10 12 13 13 12 14 14 14 16 16 15 15 16 16 17 19 21 23 23 23 24 25 27 29 29 26 26
6 6 5 3 4 6 6 6 6 8 9 9 9 8 8 8 10 10 10 9 10 12 12 12 13 15 15 15 14 14 15 16 17 18 19 20 22 22 22 22 24 24 22 21
2 4 4 5 5 7 7 7 5 6 6 6 7 8 8 8 9 10 10 9 11 14 13 13 13 13 12 13 13 13 14 16 16 17 17 17 17 17 16 17 18 20 20 14
4 1 3 4 5 5 6 5 5 4 4 5 5 5 6 7 9 10 11 12 11 11 12 12 13 10 10 11 11 11 11 12 13 14 14 14 15 15 14 14 14 14 14 13
5 4 4 4 4 2 3 5 5 5 5 6 6 6 6 7 9 9 10 10 11 11 11 12 10 9 9 10 10 9 9 10 11 13 13 13 14 13 12 13 13 13 13 13
6 5 5 5 5 4 4 4 5 5 5 6 6 7 7 7 8 9 7 7 8 8 10 12 10 9 9 9 10 9 10 10 11 11 12 12 12 12 12 12 13 12 11 11
6 7 8 7 7 7 7 7 6 6 7 7 7 7 7 7 7 9 11 12 11 11 10 9 10 10 10 9 9 8 8 9 9 10 10 9 10 11 12 12 12 11 11 10
7 7 7 7 8 8 9 7 6 7 7 6 7 8 8 8 6 8 8 8 9 9 10 9 7 9 9 9 9 9 9 8 9 10 10 10 10 10 11 10 11 10 9 9
7 8 8 9 9 9 8 7 8 7 7 8 8 10 11 9 12 11 7 10 8 8 7 7 7 7 8 9 9 9 9 10 10 10 10 9 9 9 9 9 9 8 8 7
8 8 8 8 9 9 8 8 8 7 7 6 6 7 8 8 7 4 5 7 7 6 7 6 6 5 6 8 9 9 10 10 9 9 9 9 9 9 8 8 7 7 7 6
8 8 8 8 10 7 7 7 8 8 10 9 6 4 7 5 6 7 7 6 6 6 6 5 5 5 7 8 8 9 9 8 8 7 7 7 7 6 6 5 4 4 4 3
7 7 7 9 6 5 6 6 9 8 7 5 6 6 6 6 4 3 5 5 6 6 6 4 5 5 7 7 6 5 5 5 6 5 6 5 5 4 3 3 2 2 2 1
6 4 3 4 4 3 3 4 3 2 3 3 4 4 5 5 5 5 5 4 4 5 5 4 4 6 5 5 5 5 5 4 3 3 3 2 2 2 2 1 1 1 1 2
3 4 2 2 2 2 1 2 2 2 2 1 1 3 3 3 4 4 5 4 5 5 5 5 4 4 4 4 4 4 4 2 1 2 1 1 0 1 1 1 2 3 3 4

GFSNGP_850_spd_114.txt.gz
Wind_Speed
14 11 6 8 9 7 15 12 8 13 4 10 12 15 13 15 16 17 18 18 19 21 24 24 25 29 32 34 31 22 18 20 24 23 23 30 32 31 28 26 27 24 23 19
16 10 13 4 6 10 15 9 10 5 1 13 13 16 15 16 16 14 15 16 18 19 22 22 26 30 33 35 31 20 18 20 22 23 24 30 32 29 25 27 26 22 20 18
4 13 10 3 7 5 7 4 3 6 8 10 15 14 13 11 13 15 15 15 16 17 20 21 24 27 30 31 28 21 16 18 21 22 27 30 28 28 28 28 25 23 22 18
6 7 1 11 21 17 14 19 17 14 14 15 17 17 15 16 16 13 13 14 15 17 21 19 21 24 25 25 22 17 8 15 22 24 30 26 29 27 27 30 24 20 17 17
4 7 4 20 16 9 9 10 17 10 11 13 17 17 17 15 13 11 11 13 13 14 17 16 20 22 24 22 21 14 3 11 21 24 29 27 28 27 26 25 25 23 20 18
8 5 3 10 17 12 7 2 15 14 12 6 6 2 5 12 11 10 11 12 13 14 17 18 22 24 27 26 24 21 16 7 8 25 27 30 29 28 28 26 26 25 23 21
7 5 5 16 19 17 3 5 11 17 15 18 8 7 7 9 10 9 11 13 14 15 19 21 23 25 29 30 27 22 17 13 5 16 27 32 32 31 30 25 25 24 23 22
6 4 0 26 8 6 3 7 10 9 13 12 10 9 9 9 9 12 14 16 17 18 19 20 21 25 28 29 24 21 20 19 17 12 9 25 32 30 27 25 25 26 25 24
4 3 6 11 13 13 13 11 13 11 11 10 10 10 9 9 10 14 16 18 18 18 19 20 22 23 25 22 22 23 22 23 22 21 17 15 22 30 32 31 30 25 21 18
4 5 6 10 11 14 15 14 12 12 11 9 9 10 10 10 12 16 19 20 18 19 21 22 22 20 19 19 20 22 24 22 24 25 24 22 21 22 18 21 24 21 20 17
4 4 3 12 12 11 12 13 12 11 11 11 10 11 10 12 13 14 17 18 18 20 21 21 21 20 18 18 18 21 24 26 26 26 31 31 30 28 23 22 20 22 21 20
2 7 5 6 8 10 10 10 12 10 10 11 12 11 11 12 12 12 13 14 17 19 20 21 20 20 21 20 18 21 23 25 26 26 28 29 31 34 32 29 27 26 24 23
2 4 8 6 7 9 10 11 9 10 11 11 12 10 11 11 12 13 14 15 16 16 16 18 19 20 20 20 19 19 21 22 23 25 27 28 30 33 36 35 35 33 32 30
3 3 5 8 6 7 7 7 8 9 10 10 9 10 11 11 11 12 14 14 13 14 15 16 16 19 20 16 18 18 18 20 22 23 23 24 28 32 34 35 35 34 31 31
6 6 4 4 5 7 6 7 6 9 9 9 10 11 11 11 12 13 11 10 10 14 15 15 14 16 17 17 16 16 18 19 18 20 21 23 25 29 31 32 31 28 24 23
2 4 5 7 7 8 8 9 9 8 9 9 10 11 10 9 10 12 13 14 15 17 15 15 15 14 14 14 13 14 15 16 16 17 17 18 19 20 22 24 25 24 21 17
1 3 6 7 7 7 9 9 9 8 8 7 7 2 7 7 9 11 13 15 15 14 16 15 14 11 11 12 11 11 12 12 13 14 15 15 16 16 16 16 17 17 18 14
7 7 8 7 7 6 7 9 8 7 7 5 5 5 4 6 9 9 9 8 10 12 13 16 14 11 10 11 11 9 9 10 11 13 13 14 14 14 15 15 16 15 14 11
9 7 6 7 8 8 7 6 6 5 7 7 7 7 7 9 11 13 10 6 9 11 13 12 13 12 11 11 10 9 10 10 12 12 12 13 13 13 12 12 11 10 9 8
7 7 7 6 4 5 5 6 5 6 7 7 6 6 7 8 9 6 10 12 12 11 9 7 9 11 12 11 11 11 10 9 10 9 9 9 9 10 10 10 10 10 9 9
6 6 7 8 9 8 7 7 6 7 7 6 8 12 14 13 7 6 8 10 10 9 6 5 6 9 10 9 9 10 10 11 11 10 10 10 10 10 10 10 10 10 10 9
7 8 9 9 8 8 8 7 7 7 8 9 9 9 7 8 10 11 7 9 6 7 6 8 10 9 6 5 6 7 9 9 9 9 10 9 8 9 9 8 8 8 8 7
8 7 8 8 9 10 9 10 9 8 8 6 6 9 10 9 4 2 6 8 8 7 8 9 9 8 8 8 8 8 8 7 7 7 8 8 8 8 8 7 8 7 7 6
8 7 8 10 9 6 7 8 10 11 12 12 9 5 6 7 6 7 7 7 9 11 8 8 7 7 7 6 6 8 8 8 7 7 6 6 5 5 5 4 3 4 3 4
9 12 11 8 7 6 10 9 9 9 8 8 7 7 7 5 2 2 4 6 6 4 6 5 7 6 6 7 7 6 5 6 6 5 4 4 4 3 3 4 3 3 3 3
4 4 2 4 3 3 4 4 3 3 3 4 6 7 6 4 6 7 10 9 8 7 7 7 5 6 7 7 6 4 2 3 4 4 3 2 3 3 3 5 4 3 2 1
4 4 2 1 2 3 3 3 2 2 3 2 5 5 7 9 9 7 6 5 6 6 7 7 8 6 5 5 4 5 6 3 2 1 1 1 2 1 1 2 1 1 1 2

GFSNGP_850_spd_117.txt.gz
Wind_Speed
13 13 9 13 10 12 9 8 2 5 13 13 11 13 14 15 16 18 19 19 23 25 25 26 26 28 31 34 37 37 34 26 21 20 23 23 24 29 31 38 32 29 25 25
6 11 9 6 8 9 7 12 11 11 10 16 16 16 17 22 17 19 24 26 25 22 24 25 26 30 33 35 38 37 34 29 22 19 22 23 24 30 35 36 30 26 26 25
4 16 6 6 15 9 11 18 4 4 9 12 12 13 17 17 19 22 19 18 19 20 24 25 27 28 30 33 34 34 31 27 22 19 23 24 24 30 36 34 27 29 27 24
4 8 3 6 17 15 17 19 19 15 10 13 14 17 18 15 13 12 13 16 17 20 23 24 25 26 27 28 28 28 27 24 21 15 21 21 24 28 37 28 32 27 26 23
2 4 3 13 18 14 13 10 16 15 7 18 21 23 19 15 12 12 12 13 14 16 20 21 24 24 25 27 26 26 25 21 19 11 20 21 31 36 34 34 30 30 26 26
3 3 4 6 20 26 10 6 12 14 12 8 11 3 4 11 11 11 12 14 14 15 17 19 21 22 23 27 26 25 23 21 19 15 13 22 30 31 34 34 33 31 31 28
3 2 5 13 19 20 4 4 11 15 12 17 9 8 7 9 14 15 16 16 15 14 17 17 18 21 23 26 25 24 20 19 17 12 5 18 31 33 33 35 34 34 35 33
3 4 3 25 9 7 7 10 10 13 11 14 13 11 10 10 15 17 19 17 16 16 16 17 17 20 23 25 24 21 20 19 20 17 7 4 27 33 34 34 36 35 32 29
4 2 4 11 11 13 15 14 17 14 12 11 10 11 10 11 16 19 19 17 16 16 16 17 18 20 22 24 23 22 21 22 22 22 19 12 10 29 34 37 38 34 30 27
3 6 8 11 9 12 11 14 13 13 17 12 12 11 12 13 15 17 18 17 16 16 17 18 19 19 20 21 22 23 26 23 23 26 27 26 21 18 18 25 31 29 25 23
3 6 6 11 9 8 9 10 14 11 9 12 13 12 10 10 11 11 13 15 14 16 17 18 19 20 20 20 19 22 24 25 25 27 31 33 34 31 26 24 21 20 21 23
1 2 5 4 4 7 8 8 10 11 12 12 11 11 9 9 9 10 11 12 13 14 15 17 17 19 20 19 18 19 22 23 25 26 29 33 34 36 36 33 31 30 28 25
3 3 7 6 5 6 7 9 9 10 9 10 11 8 9 5 5 6 9 11 13 14 14 15 17 18 19 17 16 18 20 21 23 23 26 30 34 37 38 35 37 36 33 30
1 3 7 5 3 4 4 3 8 10 9 8 7 7 4 6 6 6 9 11 12 13 13 14 15 17 18 16 15 15 17 19 22 24 26 28 29 33 34 34 36 33 28 26
5 6 6 4 3 4 3 9 9 10 8 8 7 7 6 8 10 11 8 9 11 13 14 13 14 15 14 14 13 14 15 15 15 16 19 20 23 27 30 30 29 27 24 22
5 4 5 6 6 7 6 7 10 9 4 2 3 8 6 7 8 11 14 14 13 15 15 14 13 12 11 11 11 12 13 12 12 12 13 15 17 19 20 20 21 20 20 20
8 11 7 10 7 9 8 6 5 4 3 3 3 4 3 4 5 8 9 12 12 12 13 14 14 11 9 9 8 9 10 11 11 12 14 15 15 15 15 14 16 17 18 15
6 7 6 6 9 6 4 5 4 5 7 6 5 4 5 8 10 9 8 8 8 9 11 13 13 11 10 10 10 10 10 10 10 12 13 15 16 16 15 13 13 14 14 13
2 1 1 4 3 1 2 4 6 7 8 7 6 7 7 8 8 13 12 6 7 9 11 10 10 10 11 10 9 8 9 10 10 11 11 11 11 11 11 10 10 10 11 11
5 6 8 5 4 6 7 7 6 6 7 6 8 12 10 10 6 7 11 8 9 10 8 6 6 9 10 10 10 11 10 10 10 10 9 9 9 9 9 8 8 8 8 9
7 8 9 8 9 9 9 9 8 9 9 10 10 11 12 11 5 3 9 8 8 9 7 4 5 7 8 6 6 7 9 10 10 10 9 8 8 8 8 8 8 7 7 7
9 10 11 10 10 10 10 9 9 8 7 6 8 9 7 7 7 8 10 8 7 10 5 5 6 6 5 4 4 4 5 5 7 7 8 8 7 7 7 6 6 5 4 5
9 9 13 15 15 14 14 14 13 11 10 7 7 8 9 8 6 6 5 7 9 8 5 5 5 4 3 3 4 5 5 5 5 4 5 4 4 4 4 4 4 4 3 3
10 13 13 12 11 11 11 12 12 13 13 12 8 2 2 3 7 9 9 8 8 10 5 3 3 3 2 3 4 5 4 4 4 3 3 2 2 2 2 2 1 1 1 1
15 12 8 7 7 8 10 8 6 7 6 8 10 11 8 7 5 8 8 4 5 8 7 5 5 5 5 5 5 3 2 2 2 1 0 0 2 1 1 1 0 1 1 2
8 6 4 6 2 3 2 2 0 1 2 3 6 10 9 7 5 6 8 9 9 10 10 7 5 6 6 5 4 4 2 1 2 2 2 2 2 2 3 3 2 1 0 0
6 4 2 5 4 1 4 2 2 2 4 6 5 7 7 7 6 6 5 6 7 7 9 11 9 6 5 5 5 5 4 0 2 2 2 2 2 2 1 1 0 1 1 2

GFSNGP_850_spd_123.txt.gz
Wind_Speed
11 11 10 12 8 11 12 12 2 7 8 10 9 11 13 20 20 34 24 33 32 30 27 25 27 27 26 25 27 26 25 25 26 26 26 25 26 23 22 24 22 26 29 33
4 7 8 17 20 16 11 12 9 10 9 7 14 19 26 24 25 21 22 21 23 21 22 23 27 26 27 29 28 27 28 27 27 28 27 24 23 22 23 27 25 25 29 31
4 7 5 4 14 13 8 18 8 8 5 5 13 16 19 15 16 16 15 14 16 19 21 23 24 25 26 27 27 28 29 29 29 29 29 25 22 21 20 23 25 26 29 31
4 5 4 3 10 7 10 14 14 9 6 8 15 16 15 14 15 16 15 16 16 19 22 24 25 26 26 26 27 28 30 32 33 33 32 28 23 21 20 23 25 26 29 30
1 3 3 3 8 8 6 8 14 13 10 4 4 1 15 17 16 15 16 17 17 20 21 21 23 25 26 27 28 30 33 34 35 35 35 32 28 22 20 23 26 28 28 31
3 3 2 2 19 19 7 5 13 13 12 14 16 4 5 17 17 17 18 19 19 19 19 20 22 24 25 27 30 33 35 34 34 34 33 32 29 25 19 20 23 30 26 35
3 1 2 12 20 16 2 4 14 12 10 13 7 6 7 13 17 19 19 19 17 17 19 22 21 23 25 28 31 31 32 31 31 32 31 30 27 24 18 15 19 28 28 31
3 3 2 21 8 5 5 10 12 13 9 8 7 7 10 14 17 21 22 21 21 20 21 20 21 23 24 27 27 27 28 29 30 31 31 27 22 18 16 14 15 22 36 38
3 1 5 7 8 8 10 8 10 11 12 5 6 7 9 12 15 19 20 20 18 19 18 19 21 23 24 26 26 27 27 28 28 30 31 29 24 18 15 6 10 16 22 32
2 2 3 6 4 6 7 9 8 7 8 6 6 6 8 10 11 13 17 18 17 17 19 20 20 20 21 23 24 26 26 26 26 28 31 33 30 29 25 17 7 3 9 18
1 2 2 3 7 7 6 5 7 7 8 7 5 6 8 9 12 13 14 14 14 15 17 19 19 20 20 23 24 25 24 23 23 24 26 30 34 34 33 31 20 19 18 15
3 2 2 1 3 6 7 7 6 6 7 6 6 7 8 10 10 11 12 13 13 14 16 18 19 20 21 22 23 24 23 23 22 21 23 25 26 29 30 30 30 26 23 23
2 2 4 3 3 4 5 4 4 5 6 7 8 9 10 11 10 10 10 12 15 15 15 17 18 19 21 21 21 20 21 21 20 20 22 22 22 24 26 27 27 29 27 25
1 0 2 2 3 7 3 5 1 4 6 6 7 9 10 9 10 11 13 13 13 13 14 16 17 19 20 19 19 18 17 17 17 18 19 19 21 23 23 25 27 27 25 25
2 3 2 2 2 3 4 0 3 5 6 7 8 8 9 10 11 12 12 12 13 13 14 16 17 18 18 18 18 17 16 15 15 15 15 16 17 18 20 22 23 23 23 25
4 4 4 2 4 4 2 3 5 6 7 7 4 5 7 8 8 11 12 13 15 17 17 17 17 18 18 16 16 15 15 14 11 11 12 13 14 15 17 18 19 20 23 24
12 8 4 2 1 2 4 6 6 6 7 6 5 5 6 7 8 10 12 12 13 14 15 15 16 16 17 16 16 15 15 14 13 11 11 12 14 16 16 16 18 19 21 19
4 4 3 3 2 2 4 5 4 4 6 6 6 6 6 8 12 14 15 14 11 9 11 13 14 15 15 15 15 14 14 13 13 13 12 11 12 13 14 15 15 16 17 17
2 3 3 3 2 2 2 3 5 5 6 7 6 6 8 9 12 15 16 14 12 10 11 12 13 13 14 15 15 14 13 12 11 12 12 12 12 12 12 12 12 12 12 12
3 4 4 4 3 4 4 5 6 5 7 9 9 8 7 9 12 15 17 16 15 13 12 12 11 11 12 12 13 14 14 13 13 13 13 12 12 13 12 12 11 11 10 10
7 8 8 8 8 8 8 8 6 6 6 4 5 8 9 11 12 13 11 11 11 11 11 11 12 12 11 11 11 12 11 12 12 12 13 13 13 13 12 12 12 11 10 9
11 11 12 12 10 10 10 8 5 4 4 5 7 8 11 13 15 14 12 13 12 10 11 11 12 12 12 11 10 9 9 9 10 10 11 11 12 12 11 11 11 11 10 9
14 14 13 13 12 12 12 12 11 9 8 9 9 8 9 11 11 9 8 10 12 11 11 12 12 11 10 10 10 9 8 8 8 8 9 9 9 9 10 9 9 9 9 9
17 15 14 13 11 10 9 9 7 6 7 10 12 13 13 10 10 10 10 10 11 12 10 10 12 11 10 9 9 8 8 8 8 8 8 7 7 8 7 7 7 7 6 6
16 15 13 11 8 6 4 2 3 4 4 6 9 10 12 11 9 9 11 11 12 13 12 10 10 10 11 10 9 8 8 8 8 8 8 7 7 6 6 5 6 6 6 5
16 12 10 7 6 4 2 3 4 5 6 7 9 9 9 9 9 9 9 10 12 13 13 13 12 12 12 11 10 8 7 7 8 8 7 7 7 6 5 4 5 5 3 2
15 14 11 10 6 2 2 5 4 5 8 9 9 8 8 8 8 8 9 10 11 13 12 12 12 12 13 12 11 10 9 8 8 8 8 7 7 6 5 5 5 4 3 2